DJ6OI-23 Weather Reports


Display with metric or nautical units.
time (UTC)temp
F
wind
direction
speed
MPH
gust
MPH
rain 1hr
in
rain 24hr
in
rain mn
in
humidity
%
barometer
mb
20260905000654 57 0.0 0.0 0.00 0.00 0.00 10 995.4
20260904235119 58 0.0 0.0 0.00 0.00 0.00 10 995.3
20260904233545 59 0.0 0.0 0.00 0.00 0.00 10 995.2
20260904230435 59 0.0 0.0 0.00 0.00 0.00 10 994.9
20260904224900 60 0.0 0.0 0.00 0.00 0.00 10 994.6
20260904223325 60 0.0 0.0 0.00 0.00 0.00 10 994.5
20260904221750 60 0.0 0.0 0.00 0.00 0.00 10 994.2
20260904220215 60 0.0 0.0 0.00 0.00 0.00 10 994.0
20260904213105 61 0.0 0.0 0.00 0.00 0.00 10 993.6
20260904211530 61 0.0 0.0 0.00 0.00 0.00 10 993.4
20260904205955 60 0.0 0.0 0.00 0.00 0.00 10 993.3
20260904204421 60 0.0 0.0 0.00 0.00 0.00 10 993.1
20260904202846 60 0.0 0.0 0.00 0.00 0.00 10 993.0
20260904201311 60 0.0 0.0 0.00 0.00 0.00 10 992.9
20260904195736 60 0.0 0.0 0.00 0.00 0.00 10 992.7
20260904194201 60 0.0 0.0 0.00 0.00 0.00 10 992.8
20260904192626 60 0.0 0.0 0.00 0.00 0.00 10 992.6
20260904191051 60 0.0 0.0 0.00 0.00 0.00 10 992.5
20260904185516 60 0.0 0.0 0.00 0.00 0.00 10 992.3
20260904183941 60 0.0 0.0 0.00 0.00 0.00 10 992.1
20260904182406 61 0.0 0.0 0.00 0.00 0.00 10 991.9
20260904180831 61 0.0 0.0 0.00 0.00 0.00 10 991.9
20260904175256 61 0.0 0.0 0.00 0.00 0.00 10 991.5
20260904173722 62 0.0 0.0 0.00 0.00 0.00 10 991.1
20260904172147 63 0.0 0.0 0.00 0.00 0.00 10 991.0
20260904170612 63 0.0 0.0 0.00 0.00 0.00 10 991.3
20260904165037 63 0.0 0.0 0.00 0.00 0.00 97 990.7
20260904163502 64 0.0 0.0 0.00 0.00 0.00 91 990.7
20260904161927 67 0.0 0.0 0.00 0.00 0.00 78 990.2
20260904160352 70 0.0 0.0 0.00 0.00 0.00 68 989.3
20260904154817 75 0.0 0.0 0.00 0.00 0.00 61 989.0
20260904153242 76 0.0 0.0 0.00 0.00 0.00 60 988.8
20260904151707 77 0.0 0.0 0.00 0.00 0.00 57 988.9
20260904150132 78 0.0 0.0 0.00 0.00 0.00 56 989.0
20260904144558 81 0.0 0.0 0.00 0.00 0.00 53 989.0
20260904143023 83 0.0 0.0 0.00 0.00 0.00 52 988.9
20260904141448 85 0.0 0.0 0.00 0.00 0.00 50 989.0
20260904135913 86 0.0 0.0 0.00 0.00 0.00 50 989.2
20260904134338 87 0.0 0.0 0.00 0.00 0.00 50 989.3
20260904132803 83 0.0 0.0 0.00 0.00 0.00 55 989.1
20260904125653 84 0.0 0.0 0.00 0.00 0.00 55 989.5
20260904124118 81 0.0 0.0 0.00 0.00 0.00 59 989.7
20260904122543 84 0.0 0.0 0.00 0.00 0.00 57 989.8
20260904121009 85 0.0 0.0 0.00 0.00 0.00 57 989.7
20260904115433 82 0.0 0.0 0.00 0.00 0.00 62 989.8
20260904113859 83 0.0 0.0 0.00 0.00 0.00 61 989.8
20260904112324 81 0.0 0.0 0.00 0.00 0.00 64 990.1
20260904110749 79 0.0 0.0 0.00 0.00 0.00 66 990.3
20260904105214 82 0.0 0.0 0.00 0.00 0.00 62 990.4
20260904103639 83 0.0 0.0 0.00 0.00 0.00 63 990.4
20260904102104 83 0.0 0.0 0.00 0.00 0.00 63 990.6
20260904100529 74 0.0 0.0 0.00 0.00 0.00 76 990.9
20260904094954 76 0.0 0.0 0.00 0.00 0.00 74 991.0
20260904093419 79 0.0 0.0 0.00 0.00 0.00 70 991.1
20260904091844 75 0.0 0.0 0.00 0.00 0.00 76 991.4
20260904090309 74 0.0 0.0 0.00 0.00 0.00 78 991.6
20260904084734 75 0.0 0.0 0.00 0.00 0.00 76 991.7
20260904083200 73 0.0 0.0 0.00 0.00 0.00 81 991.8
20260904081625 72 0.0 0.0 0.00 0.00 0.00 82 991.9
20260904080050 72 0.0 0.0 0.00 0.00 0.00 82 992.0
20260904074515 72 0.0 0.0 0.00 0.00 0.00 83 992.2
20260904072940 73 0.0 0.0 0.00 0.00 0.00 81 992.1
20260904071405 74 0.0 0.0 0.00 0.00 0.00 81 992.2
20260904065830 72 0.0 0.0 0.00 0.00 0.00 84 992.4
20260904064255 71 0.0 0.0 0.00 0.00 0.00 89 992.5
20260904062720 70 0.0 0.0 0.00 0.00 0.00 90 992.6
20260904061145 69 0.0 0.0 0.00 0.00 0.00 94 992.8
20260904055610 68 0.0 0.0 0.00 0.00 0.00 96 992.9
20260904054035 68 0.0 0.0 0.00 0.00 0.00 97 993.2
20260904052501 67 0.0 0.0 0.00 0.00 0.00 98 993.2
20260904050926 66 0.0 0.0 0.00 0.00 0.00 10 993.1
20260904045351 65 0.0 0.0 0.00 0.00 0.00 10 993.2
20260904043816 65 0.0 0.0 0.00 0.00 0.00 10 993.4
20260904042241 65 0.0 0.0 0.00 0.00 0.00 10 993.6
20260904040706 65 0.0 0.0 0.00 0.00 0.00 10 993.8
20260904035131 65 0.0 0.0 0.00 0.00 0.00 10 993.9
20260904033556 65 0.0 0.0 0.00 0.00 0.00 10 994.1
20260904032021 65 0.0 0.0 0.00 0.00 0.00 10 994.2
20260904030446 65 0.0 0.0 0.00 0.00 0.00 10 994.5
20260904024911 64 0.0 0.0 0.00 0.00 0.00 10 994.6
20260904023337 64 0.0 0.0 0.00 0.00 0.00 10 994.8
20260904021802 64 0.0 0.0 0.00 0.00 0.00 10 995.1
20260904020227 64 0.0 0.0 0.00 0.00 0.00 10 995.1
20260904014652 64 0.0 0.0 0.00 0.00 0.00 99 995.1
20260904013117 63 0.0 0.0 0.00 0.00 0.00 98 995.1
20260904011542 63 0.0 0.0 0.00 0.00 0.00 98 995.4
20260904010007 63 0.0 0.0 0.00 0.00 0.00 97 995.6
20260904004432 63 0.0 0.0 0.00 0.00 0.00 97 995.8
20260904002857 63 0.0 0.0 0.00 0.00 0.00 96 995.8